Regional Weather Roundup
Issued by NWS

Home | Current Version | Previous Version | Graphics & Text | Print | Product List | Glossary On
Versions: 1 2 3 4 5 6 7 8 9 10 11 12 13 14 15 16 17 18 19 20 21 22 23 24 25 26 27 28 29 30 31 32 33 34 35 36 37 38 39 40 41 42 43 44 45 46 47 48 49 50
000
ASUS43 KFSD 281010
RWRSD

WEATHER ROUNDUP FOR SOUTH DAKOTA
NATIONAL WEATHER SERVICE SIOUX FALLS SD
400 AM CST FRI NOV 28 2014

NOTE: "FAIR" INDICATES FEW OR NO CLOUDS BELOW 12,000 FEET WITH NO
SIGNIFICANT WEATHER AND/OR OBSTRUCTIONS TO VISIBILITY.


SDZ001>005-009-010-012>017-281100-
NORTHWEST AND NORTH CENTRAL SOUTH DAKOTA

CITY           SKY/WX    TMP DP  RH WIND       PRES   REMARKS
BUFFALO          N/A     39  27  62 W8        29.64F
FAITH            N/A     29  21  72 CALM      29.72S
MOBRIDGE       MOCLDY    13   8  81 E12       29.77F WCI  -1
$$

SDZ012>016-024>037-041>051-057-063-072>074-281100-
SOUTHWEST AND SOUTH CENTRAL SOUTH DAKOTA

CITY           SKY/WX    TMP DP  RH WIND       PRES   REMARKS
RAPID CTY ARPT CLOUDY    34  26  72 E5        29.71F WCI  30
PIERRE         CLOUDY    18  15  88 NE6       29.78F WCI  10
CUSTER         PTCLDY    39  25  57 SW7       29.81F
ELLSWORTH AFB  CLOUDY    44  29  55 SW8       29.70F
PHILIP         CLOUDY    29  24  82 CALM      29.75F
PINE RIDGE     PTCLDY    27  23  85 CALM      29.81F
SPEARFISH      FAIR      50  27  40 W15G21    29.73F
WINNER         FAIR      41  28  60 SW13      29.79S
$$

SDZ004>011-016>023-039-040-281100-
NORTHEAST SOUTH DAKOTA

CITY           SKY/WX    TMP DP  RH WIND       PRES   REMARKS
ABERDEEN       CLEAR      9   5  84 NE7       29.88F WCI  -2
WATERTOWN      PTCLDY    13   9  84 SE9       29.86F WCI   1
SISSETON         N/A      6   2  83 S10       29.96R WCI  -9
$$

SDZ017-020-022-023-036>040-048>070-281100-
SOUTHEAST SOUTH DAKOTA

CITY           SKY/WX    TMP DP  RH WIND       PRES   REMARKS
SIOUX FALLS    FAIR      18  14  84 SE6       29.89F WCI  10
HURON          PTCLDY    18  14  84 SE7       29.85S WCI   9
CHAMBERLAIN    MOCLDY    26  20  79 CALM      29.79F
MITCHELL       CLOUDY    22  17  81 SE9       29.86F WCI  12
YANKTON        MOCLDY    21  18  86 SE8       29.88F WCI  12
$$

ABBREVIATIONS USED IN REMARKS
   TC - TEMPERATURE IN CELSIUS
  WCI - WIND CHILL INDEX
   HX - HEAT INDEX
  VSB - VISIBILITY



USA.gov is the U.S. government's official web portal to all federal, state and local government web resources and services.